Regional Weather Roundup
Issued by NWS Goodland, KS

Home | Current Version | Previous Version | Graphics & Text | Print | Product List | Glossary On
Versions: 1 2 3 4 5 6 7 8 9 10 11 12 13 14 15 16 17 18 19 20 21 22 23 24 25 26 27 28 29 30 31 32 33 34 35 36 37 38 39 40 41 42 43 44 45 46 47 48 49 50
000
ASUS43 KGLD 281359
RWRGLD

GOODLAND FORECAST AREA HOURLY WEATHER ROUNDUP
NATIONAL WEATHER SERVICE GOODLAND KS
800 AM MDT SAT MAY 28 2016

...OFFICIAL OBSERVATIONS...

CITY           SKY/WX    TMP DP  RH WIND       PRES   REMARKS
GOODLAND KS    SUNNY     56  49  77 NW9       29.96R
HILL CITY KS   SUNNY     61  54  77 NW9       29.91R
IMPERIAL NEB   SUNNY     57  50  77 NW7       29.93R
MCCOOK NEB     SUNNY     58  54  86 W12       29.90R
AKRON CO       SUNNY     51  45  79 W10       29.99R
BURLINGTON CO  SUNNY     55  46  71 NW7       29.99R
LIMON CO       SUNNY     50  42  74 W7        30.04R
$$

...UNOFFICIAL OBSERVATIONS...

CITY           SKY/WX    TMP DP  RH WIND       PRES   REMARKS
GOVE KS          N/A     58  32  37 MISG        N/A
LENORA KS        N/A     59  32  36 MISG        N/A
SHARON SPRINGS   N/A     56  52  86 NW8         N/A
TRIBUNE KS     SUNNY     59  50  72 NW8       29.99R
KIT CARSON CO    N/A     52  47  84 CALM        N/A
YUMA CO          N/A     52  48  87 W9          N/A
$$




USA.gov is the U.S. government's official web portal to all federal, state and local government web resources and services.